Location: Carnoy
(49.9849°N, 2.7558°E)
Time: 17:44:07
(UTC+00:00)

CSL-04 Debris - Pass Details

Date: 24 January 2020
Orbit: 828 x 848 km, 99.0° (Epoch: 18 February)

Event Time Altitude Azimuth Distance (km) Brightness Sun altitude
Rises 18:21:59 0° 167° (SSE) 3,356 7.3 -17.9°
Reaches altitude 10° 18:24:20 10° 169° (SSE) 2,427 6.6 -18.3°
Maximum altitude 18:29:43 77° 255° (WSW) 856 4.3 -19.1°
Drops below altitude 10° 18:35:09 10° 342° (NNW) 2,453 6.7 -20.0°
Sets 18:37:32 0° 344° (NNW) 3,393 7.5 -20.4°
